Content
SEND FEEDBACK

Daily
Averages
Monthly
Summary
United States of America

BRUSH CREEK, OKLAHOMA


Home > North America > United States > Oklahoma
Elevation: 1050 feet     Latitude: 36 26N     Longitude: 094 48W

WEATHER
 
SELECT A DAY
Number of Records: 329,396;   Date Range: 1/8/01 - 7/7/14
 
SHARE

PRINT THIS DATA

[ ← Previous Day ]
WEATHER ALMANAC - FEBRUARY 13, 2013
[ Next Day → ]
[ °C ]   °F
Weather ElementAverageHighLow
Temperature41.2 °F51.8 °F (3:35 pm)33.8 °F (2:55 am)
Dewpoint34.6 °F39.2 °F (10:55 am)30.2 °F (11:35 pm)
Humidity80.2 %100 % (12:35 am)47 % (4:15 pm)
Barometer29.99 in30.04 in (8:55 am)29.94 in (5:15 pm)
Wind Speed5.9 mph11.5 mph (8:55 am)
Wind Gust16.1 mph (2:35 pm)
Weather ElementAverage
Visibility7.9 mi
Wind DirectionSSW (189.9 °)

Weather ElementTotal
Precipitation---
Heating Degree Days22.2 (Base 65)
Averaged from 70 records on February 13, 2013
WEATHER CONDITIONS BREAKOUT
WIND DIRECTION BREAKOUT
WEATHER BY HOUR - FEBRUARY 13, 2013
[ °C ]   °F
Local TimeTemperatureDewpointHumidityBarometerVisibilityWind DirectionWind SpeedGust SpeedPrecipitationEventsConditions
12:35 AM35.6 °F35.6 °F100 %30.00 in10.0 miCalmLight Drizzle
12:55 AM35.6 °F35.6 °F100 %30.01 in7.0 miNW (310°)3.5 mphLight Drizzle
1:15 AM35.6 °F35.6 °F100 %30.01 in7.0 miCalmLight Drizzle
1:35 AM35.6 °F35.6 °F100 %30.00 in5.0 miCalmRainRain
1:55 AM35.6 °F35.6 °F100 %30.00 in4.0 miCalmSnowLight Snow
2:15 AM35.6 °F35.6 °F100 %30.00 in5.0 miCalmRainLight Rain
2:35 AM35.6 °F35.6 °F100 %30.00 in5.0 miCalmRainLight Rain
2:55 AM33.8 °F33.8 °F100 %30.00 in4.0 miCalmRainRain
3:15 AM33.8 °F33.8 °F100 %29.99 in4.0 miCalmRainLight Rain
3:35 AM35.6 °F35.6 °F100 %29.99 in4.0 miCalmOvercast
3:55 AM35.6 °F35.6 °F100 %29.99 in5.0 miWNW (290°)5.8 mphOvercast
4:15 AM35.6 °F35.6 °F100 %30.00 in5.0 miWNW (290°)3.5 mphOvercast
4:35 AM35.6 °F35.6 °F100 %30.00 in5.0 miCalmOvercast
4:55 AM35.6 °F35.6 °F100 %30.00 in5.0 miCalmOvercast
5:15 AM35.6 °F35.6 °F100 %30.00 in7.0 miCalmOvercast
5:35 AM35.6 °F35.6 °F100 %30.00 in4.0 miWSW (250°)5.8 mphOvercast
5:55 AM35.6 °F35.6 °F100 %30.00 in2.5 miWest (260°)4.6 mphOvercast
6:15 AM35.6 °F35.6 °F100 %30.01 in3.0 miWest (270°)5.8 mphOvercast
6:35 AM35.6 °F35.6 °F100 %30.01 in4.0 miSW (230°)4.6 mphOvercast
6:55 AM35.6 °F35.6 °F100 %30.02 in4.0 miWSW (240°)5.8 mphOvercast
7:15 AM35.6 °F35.6 °F100 %30.02 in4.0 miWSW (240°)3.5 mphOvercast
7:35 AM35.6 °F35.6 °F100 %30.03 in5.0 miWSW (240°)6.9 mphOvercast
7:55 AM35.6 °F35.6 °F100 %30.03 in4.0 miSSW (210°)6.9 mphOvercast
8:15 AM35.6 °F35.6 °F100 %30.03 in7.0 miSW (220°)6.9 mphOvercast
8:35 AM35.6 °F35.6 °F100 %30.03 in7.0 miWSW (240°)9.2 mphOvercast
8:55 AM37.4 °F37.4 °F100 %30.04 in7.0 miWSW (240°)11.5 mphOvercast
9:15 AM37.4 °F37.4 °F100 %30.03 in7.0 miWSW (240°)6.9 mphOvercast
9:35 AM37.4 °F37.4 °F100 %30.03 in7.0 miWSW (240°)11.5 mphOvercast
9:55 AM37.4 °F37.4 °F100 %30.03 in7.0 miWSW (250°)11.5 mphOvercast
10:15 AM37.4 °F37.4 °F100 %30.04 in7.0 miSW (230°)9.2 mphOvercast
10:35 AM37.4 °F37.4 °F100 %30.04 in7.0 miWSW (250°)11.5 mphOvercast
10:55 AM39.2 °F39.2 °F100 %30.04 in7.0 miWest (260°)8.1 mphOvercast
11:15 AM41.0 °F39.2 °F93 %30.03 in7.0 miWest (260°)10.4 mphOvercast
11:35 AM41.0 °F39.2 °F93 %30.03 in7.0 miSW (220°)11.5 mphMostly Cloudy
11:55 AM42.8 °F37.4 °F81 %30.03 in10.0 miWSW (240°)10.4 mphMostly Cloudy
12:15 PM44.6 °F37.4 °F76 %30.03 in10.0 miWSW (250°)9.2 mphScattered Clouds
12:55 PM44.6 °F37.4 °F76 %30.00 in10.0 miWest (260°)6.9 mphScattered Clouds
1:15 PM46.4 °F35.6 °F66 %30.00 in10.0 miSW (230°)8.1 mphClear
1:35 PM46.4 °F35.6 °F66 %29.99 in10.0 miWSW (250°)8.1 mphClear
1:55 PM48.2 °F33.8 °F58 %29.99 in10.0 miWest (260°)9.2 mphClear
2:15 PM50.0 °F33.8 °F54 %29.98 in10.0 miWSW (250°)9.2 mphClear
2:35 PM50.0 °F35.6 °F58 %29.98 in10.0 miWSW (250°)10.4 mph16.1 mphClear
2:55 PM50.0 °F35.6 °F58 %29.97 in10.0 miWSW (250°)9.2 mphClear
3:15 PM50.0 °F33.8 °F54 %29.96 in10.0 miSW (220°)11.5 mphClear
3:35 PM51.8 °F33.8 °F50 %29.96 in10.0 miSW (220°)10.4 mphClear
3:55 PM51.8 °F33.8 °F50 %29.95 in10.0 miSW (220°)11.5 mphClear
4:15 PM51.8 °F32.0 °F47 %29.95 in10.0 miSW (230°)9.2 mphClear
4:35 PM51.8 °F32.0 °F47 %29.95 in10.0 miWSW (240°)9.2 mphClear
4:55 PM51.8 °F32.0 °F47 %29.95 in10.0 miWSW (240°)9.2 mphClear
5:15 PM51.8 °F33.8 °F50 %29.94 in10.0 miSW (220°)8.1 mphClear
5:35 PM50.0 °F32.0 °F50 %29.94 in10.0 miSW (220°)8.1 mphClear
5:55 PM50.0 °F32.0 °F50 %29.94 in10.0 miSW (220°)5.8 mphClear
6:15 PM46.4 °F32.0 °F57 %29.94 in10.0 miSW (220°)4.6 mphClear
6:35 PM46.4 °F32.0 °F57 %29.94 in10.0 miSSW (200°)3.5 mphClear
6:55 PM44.6 °F32.0 °F61 %29.94 in10.0 miSouth (190°)5.8 mphClear
7:15 PM44.6 °F33.8 °F66 %29.94 in10.0 miSouth (190°)4.6 mphClear
7:35 PM42.8 °F33.8 °F70 %29.94 in10.0 miSouth (190°)5.8 mphClear
7:55 PM42.8 °F33.8 °F70 %29.94 in10.0 miSSW (200°)5.8 mphClear
8:15 PM42.8 °F33.8 °F70 %29.95 in10.0 miSouth (190°)4.6 mphClear
8:35 PM41.0 °F32.0 °F70 %29.95 in10.0 miSSW (200°)3.5 mphClear
8:55 PM41.0 °F32.0 °F70 %29.95 in10.0 miSSW (200°)3.5 mphClear
9:15 PM41.0 °F32.0 °F70 %29.95 in10.0 miSSW (210°)3.5 mphClear
9:35 PM42.8 °F32.0 °F66 %29.96 in10.0 miCalmClear
9:55 PM42.8 °F32.0 °F66 %29.96 in10.0 miSW (220°)3.5 mphClear
10:15 PM41.0 °F32.0 °F70 %29.96 in10.0 miSW (220°)5.8 mphClear
10:35 PM42.8 °F32.0 °F66 %29.96 in10.0 miSW (230°)6.9 mphClear
10:55 PM42.8 °F32.0 °F66 %29.96 in10.0 miSW (220°)6.9 mphClear
11:15 PM42.8 °F32.0 °F66 %29.96 in10.0 miSW (230°)4.6 mphClear
11:35 PM41.0 °F30.2 °F65 %29.96 in10.0 miSSW (210°)4.6 mphClear
11:55 PM41.0 °F30.2 °F65 %29.96 in10.0 miSW (220°)4.6 mphClear
Hourly data recorded from KGMJ, located miles away from Brush Creek, Oklahoma







STORIES FROM OUR PARTNERS